Hourly Data Report for August 12, 2022

LYNN LAKE
MANITOBA
Current Station Operator: NAVCAN

56°51'50.000" N
101°04'34.000" W
356.60 m
5061645
71078
YYL

Download Data

Hourly Data (August 2022)
Hourly Data Report for August 12, 2022
TIME
LST
Temp Definition
°C
Dew Point Definition
°C
Rel Hum Definition
%
Precip. Amount Definition
mm

Wind Dir Definition
10's deg

Wind Spd Definition
km/h
Visibility Definition
km
Stn Press Definition
kPa
Hmdx Definition


Wind Chill Definition


Weather Definition


00:00 15.6 13.5 87 0.0 36 28 16.1 97.00     LegendNANA
01:00 14.1 12.2 88 0.0 3 18 16.1 97.08     LegendNANA
02:00 13.2 12.3 94 0.0 36 11 16.1 97.12     LegendNANA
03:00 12.3 11.4 94 0.0 36 21 16.1 97.24     LegendNANA
04:00 11.1 9.4 89 0.0 3 21 16.1 97.31     Rain
05:00 10.6 9.2 91 0.0 1 17 16.1 97.41     LegendNANA
06:00 10.7 9.0 89 0.0 1 11 16.1 97.50     LegendNANA
07:00 11.7 8.8 82 0.0 2 17 16.1 97.53     LegendNANA
08:00 13.2 7.8 70 0.0 3 18 16.1 97.56     LegendNANA
09:00 14.9 7.9 63 0.0 4 13 16.1 97.59     LegendNANA
10:00 16.3 8.0 58 0.0 2 17 16.1 97.61     LegendNANA
11:00 17.5 7.3 51 0.0 11 11 16.1 97.66     LegendNANA
12:00 18.4 7.1 47 0.0 11 9 16.1 97.65     LegendNANA
13:00 19.4 6.4 42 0.0 LegendMM 8 16.1 97.65     LegendNANA
14:00 19.9 6.5 41 0.0 LegendMM 11 16.1 97.63     LegendNANA
15:00 20.4 6.7 41 0.0 36 11 16.1 97.62     LegendNANA
16:00 20.5 6.7 40 0.0 LegendMM 4 16.1 97.57     LegendNANA
17:00 20.6 6.8 40 0.0 5 9 16.1 97.57     LegendNANA
18:00 20.1 7.2 43 0.0   0 16.1 97.54     LegendNANA
19:00 19.4 7.0 44 0.0 11 5 16.1 97.53     LegendNANA
20:00 17.0 9.6 61 0.0 16 5 16.1 97.54     LegendNANA
21:00 15.2 9.4 68 0.0 12 4 16.1 97.57     LegendNANA
22:00 12.3 9.0 80 0.0 15 5 16.1 97.58     LegendNANA
23:00 11.5 9.3 86 0.0 20 8 16.1 97.58     LegendNANA

Notes on Data Quality.

Legend

  • E = Estimated
  • M = Missing
  • NA = Not Available*
  • [empty] = Indicates an unobserved value
Date modified: